Starlink 11135

operational
NORAD ID: 60048 Int'l Des: 2024-112 Owner: SPXS Country: US Constellation: starlink
LEOCIRCULAR

关于 Starlink 11135

正在加载描述...

实时位置

正在加载3D地球...

即将过境

高度历史

Altitude vs Time

uPlot chart will show altitude changes over time

两行轨道根数

1 60048U 24112L 25354.08945456 -.00000464 00000-0 10334-5 0 9999
2 60048 53.1597 298.3341 0001303 89.7499 270.3668 15.69706150 88483
Epoch: Dec 20, 2025 • Age: 17 hours

当前状态

高度 374.1 km
速度 7.68 km/s
星下点 -41.23°S, 116.25°W
发射日期 Jun 8, 2024
运行时间 1.5 years
类型 internet

技术详情

分类 Payload
质量 960.00 kg
干质量 910.00 kg
总质量 960.00 kg
长度 0.30 m
直径 4.10 m
跨度 29.00 m
形状 Box + pan
制造商 SPXS
平台类型 Starlink V2MD
阶段状态 In Orbit
所有者/国家 SPXS/US

大型星座

Loading constellations...